Showing default

CATSAT, 60246

Orbit data source: Space-Track

CATSAT, 60246 is a payload satellite owned by U. Arizona (US) in SSO that was launched on Thu, 04 Jul 2024 UTC via an FIREFLY ALPHA launch vehicle from the Air Force Western Test Range (AFWTR). Payload-class satellites include a variety of spacecraft equipped with specific instruments for various scientific and technological missions. These include communications satellites like Starlink; space stations such as the ISS; scientific satellites like the Hubble; Earth observation satellites from companies like Planet Labs, Umbra, and HawkEye 360; GPS; miniature CubeSats for education and research; and military/defense satellites.

Loading next visibility...
Identifier
60246, 2024-125J
Orbit
SSO
Country
Flag of USUS
Related business
Manufacturer
U. Arizona
Mission
Operational spacecraft
Bus & Motor
CUBESAT 6U, Unknown motor
Mass
12 kg wet, ~12 kg dry
Launch date (UTC)
2024-07-04 (1 year ago)
Launch vehicle
FIREFLY ALPHA
Launch site
Air Force Western Test Range (AFWTR)
Object type
Payload
Rocket body
Debris
Shape & HBR
Unknown
Radar Cross Section
Medium (>0.1 m² and <1 m²)

Expand to show TLE details & history
Last TLE update: 22 hours ago

TLE from 22 hours ago
0 CATSAT
1 60246U 24125J   25260.52612606  .00021528  00000-0  65067-3 0  9990
2 60246  97.2495 109.2327 0041406  97.5580 263.0369 15.33378592 65285
Epoch: 2025-09-17T12:37Z
TLE epoch observation values (Epoch: 2025-09-17T12:37:37.291Z)
Latitude
-0.00006°
Longitude
-76.87348°
Altitude
472.406 km
Speed
7.628 km/s
True Right ascension
07h 16m 55s
True Declination
0° 00' 00"
Sunlit
Object was in daylight at epoch
Visualization orbit readout
Latitude
Unknown
Longitude
Unknown
Altitude
Unknown
Speed
Unknown
Apparent Right ascension
Unknown
Apparent Declination
Unknown
Sunlit
N/A
Visualization observer readout
Local Sidereal Time
03:24:30
Azimuth
Unknown
Elevation
Unknown
Doppler factor
Unknown
Orbital elements
Apogee altitude
491.007 km
Perigee altitude
434.357 km
Semi-major axis
6,840.819 km
Eccentricity
0.00414
Inclination
97.2495°
RAAN
109.2327°
Arg. of periapsis
97.558°
True anomaly
262.56622°
Mean anomaly
263.0369°
Eccentric anomaly
262.80153°
Mean motion
3.83602 °/min
Orbital period
93.85 mins
BSTAR
0.00065067
Loading maneuver chart data...
Computing Atmospheric mass density...
Loading historical data...
Loading historical data...
Loading historical data...
Loading historical data...
Loading historical data...
Loading historical data...
Loading historical data...

Documentation

Showing up to 5 results
|